Simultaneous Nadir Overpasses (SNOs) Predictions

Prediction of SNOs between GOES-14 and NPP Satellite Orbit:

Table of predicted SNOs for the next 14.0 days since TLE Epoch: 8/24/2024
Index Date Time (GOES-14) GOES-14 Lat,Lon NPP Lat,Lon Distance(km) Time Diff (sec)
1 08/25/2024 08:46:04 0.03,-108.36 0.35,-109.93 178.07 80
2 08/26/2024 08:24:38 0.03,-108.35 -0.64,-105.39 337.60 80
3 08/27/2024 20:46:33 -0.02,-108.31 -0.58,-110.69 272.19 80
4 08/28/2024 20:30:29 -0.01,-108.30 0.48,-106.17 243.94 80
5 08/30/2024 08:52:15 0.00,-108.34 0.71,-111.43 352.47 80
6 08/31/2024 08:30:50 -0.00,-108.33 -0.30,-106.89 163.40 80
7 09/01/2024 20:52:45 0.00,-108.28 -0.90,-112.19 446.59 80
8 09/02/2024 20:36:40 0.00,-108.28 0.11,-107.66 70.26 80
9 09/05/2024 08:39:41 0.00,-108.33 -0.01,-108.40 8.28 80
